FW2545 Weather Reports


Display with metric or nautical units.
time (UTC)temp
F
wind
direction
speed
MPH
gust
MPH
rain 1hr
in
rain 24hr
in
rain mn
in
humidity
%
barometer
mb
20260504004530 82 16 2.0 7.0 0.00 0.00 0.00 31 1012.0
20260504003031 82 47 1.0 6.0 0.00 0.00 0.00 30 1012.1
20260504001530 82 22 3.0 9.0 0.00 0.00 0.00 29 1012.2
20260504000031 83 15 4.0 8.0 0.00 0.00 0.00 29 1012.3
20260503234531 84 1 4.0 8.0 0.00 0.00 0.00 28 1012.5
20260503233027 84 71 1.0 11.0 0.00 0.00 0.00 29 1012.7
20260503231648 85 36 2.0 8.0 0.00 0.00 0.00 29 1012.9
20260503230032 85 59 3.0 9.0 0.00 0.00 0.00 28 1013.1
20260503224530 86 52 4.0 11.0 0.00 0.00 0.00 27 1013.4
20260503223032 86 71 4.0 13.0 0.00 0.00 0.00 27 1013.7
20260503221532 86 71 3.0 10.0 0.00 0.00 0.00 27 1013.9
20260503220030 87 49 4.0 10.0 0.00 0.00 0.00 28 1014.2
20260503214529 86 48 4.0 10.0 0.00 0.00 0.00 28 1014.3
20260503213107 86 76 5.0 13.0 0.00 0.00 0.00 29 1014.5
20260503211529 86 80 5.0 13.0 0.00 0.00 0.00 30 1014.7
20260503210105 86 36 4.0 13.0 0.00 0.00 0.00 31 1014.9
20260503201531 85 43 5.0 12.0 0.00 0.00 0.00 33 1015.3
20260503200029 85 40 6.0 12.0 0.00 0.00 0.00 34 1015.6
20260503194529 85 45 5.0 11.0 0.00 0.00 0.00 34 1015.8
20260503191529 83 39 4.0 11.0 0.00 0.00 0.00 35 1016.1
20260503190147 83 33 3.0 10.0 0.00 0.00 0.00 36 1016.2
20260503184529 82 39 3.0 11.0 0.00 0.00 0.00 37 1016.3
20260503183030 78 62 3.0 11.0 0.00 0.00 0.00 41 1016.4
20260503180031 74 98 2.0 7.0 0.00 0.00 0.00 45 1016.7
20260503174605 74 32 2.0 7.0 0.00 0.00 0.00 48 1016.8
20260503173104 72 356 2.0 6.0 0.00 0.00 0.00 52 1016.8
20260503171529 71 318 3.0 8.0 0.00 0.00 0.00 54 1016.9
20260503081526 53 217 1.0 4.0 0.00 0.00 0.00 78 1016.5
20260503071531 55 190 2.0 5.0 0.00 0.00 0.00 73 1016.5
20260503054605 59 256 1.0 4.0 0.00 0.00 0.00 67 1016.4
20260503051530 60 163 0.0 2.0 0.00 0.00 0.00 64 1016.3
20260503044646 61 157 0.0 4.0 0.00 0.00 0.00 61 1016.4
20260503043031 61 224 1.0 4.0 0.00 0.00 0.00 60 1016.2
20260503041530 62 176 0.0 2.0 0.00 0.00 0.00 58 1016.3
20260503040038 63 189 3.0 6.0 0.00 0.00 0.00 58 1016.2
20260503034531 64 221 0.0 4.0 0.00 0.00 0.00 58 1016.0
20260503033105 66 230 1.0 9.0 0.00 0.00 0.00 57 1015.7
20260503030030 66 169 1.0 4.0 0.00 0.00 0.00 61 1014.9
20260503024529 68 338 0.0 4.0 0.00 0.00 0.00 58 1014.6
20260503023030 69 337 2.0 4.0 0.00 0.00 0.00 54 1014.4
20260503021607 71 341 3.0 4.0 0.00 0.00 0.00 51 1014.3
20260503014529 75 22 3.0 5.0 0.00 0.00 0.00 43 1014.0
20260503013030 76 17 3.0 6.0 0.00 0.00 0.00 39 1014.0
20260503011531 77 10 4.0 9.0 0.00 0.00 0.00 38 1014.1
20260503010104 78 10 4.0 9.0 0.00 0.00 0.00 38 1014.1